Location: Aalen
(48.8330°N, 10.1000°E)
Time: 00:15:03
(UTC+02:00)

Transit 4A - Pass Details

Date: 08 August 2021
Orbit: 870 x 974 km, 66.8° (Epoch: 26 September)

Event Time Altitude Azimuth Distance (km) Brightness Sun altitude
Rises 22:13:31 0° 168° (SSE) 3,482 - -12.6°
Reaches altitude 10° 22:16:36 10° 153° (SSE) 2,534 - -13.0°
Exits shadow 22:19:11 18° 129° (SE) 1,992 9.0 -13.3°
Maximum altitude 22:20:48 21° 107° (ESE) 1,879 9.0 -13.5°
Drops below altitude 10° 22:24:58 10° 61° (ENE) 2,525 10.0 -14.0°
Sets 22:28:02 0° 45° (NE) 3,467 10.9 -14.3°
